Manitowoc, WI

2:50 AM CST on January 17, 2017 (GMT -0600)
Manitowoc County

Weather History for KMTW - January, 2014

Change the Weather History Date:

Saturday, January 18, 2014

  Actual Average Record
Temperature  
Mean Temperature 11 °F -  
Max Temperature 21 °F 25 °F 44 °F (1973)
Min Temperature 1 °F 10 °F -21 °F (1967)
Degree Days  
Heating Degree Days 54    
Moisture  
Dew Point 7 °F    
Average Humidity 84    
Maximum Humidity 92    
Minimum Humidity 77    
Precipitation  
Precipitation 0.00 in - - ()
Sea Level Pressure  
Sea Level Pressure 29.89 in    
Wind  
Wind Speed 5 mph (NW)    
Max Wind Speed 12 mph    
Max Gust Speed -    
Visibility 10 miles    
Events Snow    
Averages and records for this station are not official NWS values.
T = Trace of Precipitation, MM = Missing Value Source: NWS Daily Summary

Daily Weather History Graph

Daily Weather History Graph

Search for Another Location

Airport or City:

Trip Planner

Search our weather history database for the weather conditions in past years. The results will help you decide how hot, cold, wet, or windy it might be!

Date:

Astronomy

Jan. 18, 2014 Rise Set
Actual Time 7:20 AM CST 4:41 PM CST
Civil Twilight 6:48 AM CST 5:13 PM CST
Nautical Twilight 6:13 AM CST 5:49 PM CST
Astronomical Twilight 5:38 AM CST 6:23 PM CST
Moon 7:31 PM CST (1/18) 8:13 AM CST (1/18)
Length of Visible Light 10h 24m
Length of Day
9h 21m
Waning Gibbous, 94% of the Moon is Illuminated
Jan 18
Waning Gibbous
Jan 23
Last Quarter
Jan 30
New
Feb 6
First Quarter
Feb 14
Full

Hourly Weather History & Observations

Time (CST) Temp. Windchill Dew Point Humidity Pressure Visibility Wind Dir Wind Speed Gust Speed Precip Events Conditions
12:42 AM 15.8 °F 7.2 °F 10.4 °F 79% 29.86 in 10.0 mi North 5.8 mph - 0.00 in   Overcast
12:56 AM 15.1 °F 6.4 °F 10.0 °F 80% 29.93 in 10.0 mi North 5.8 mph - 0.00 in   Overcast
1:20 AM 14.0 °F 8.2 °F 8.6 °F 79% 29.85 in 10.0 mi North 3.5 mph - N/A   Overcast
1:56 AM 10.9 °F - 6.1 °F 81% 29.94 in 10.0 mi Calm Calm - N/A   Clear
2:56 AM 7.0 °F -1.7 °F 3.0 °F 84% 29.94 in 10.0 mi NW 4.6 mph - N/A   Clear
3:56 AM 5.0 °F -4.1 °F 1.0 °F 84% 29.92 in 10.0 mi NW 4.6 mph - N/A   Clear
4:56 AM 5.0 °F -2.1 °F 3.0 °F 92% 29.91 in 10.0 mi West 3.5 mph - N/A   Clear
5:56 AM 1.9 °F - -0.9 °F 88% 29.91 in 10.0 mi Calm Calm - N/A   Clear
6:29 AM 1.4 °F - -0.4 °F 92% 29.83 in 10.0 mi Calm Calm - N/A   Mostly Cloudy
6:56 AM 1.9 °F - -0.9 °F 88% 29.91 in 10.0 mi Calm Calm - N/A   Overcast
7:48 AM 1.4 °F -6.2 °F -2.2 °F 85% 29.82 in 10.0 mi NW 3.5 mph - N/A   Partly Cloudy
7:56 AM 1.0 °F -8.7 °F -2.0 °F 87% 29.90 in 10.0 mi NW 4.6 mph - N/A   Clear
8:56 AM 7.0 °F -1.7 °F 5.0 °F 92% 29.91 in 10.0 mi WNW 4.6 mph - N/A   Clear
9:20 AM 10.4 °F 2.2 °F 6.8 °F 85% 29.84 in 10.0 mi NW 4.6 mph - N/A   Mostly Cloudy
9:47 AM 12.2 °F 2.9 °F 8.6 °F 85% 29.85 in 10.0 mi NW 5.8 mph - N/A   Partly Cloudy
9:56 AM 12.9 °F 5.2 °F 9.0 °F 84% 29.93 in 10.0 mi WNW 4.6 mph - N/A   Clear
10:17 AM 14.0 °F 8.2 °F 10.4 °F 86% 29.86 in 10.0 mi West 3.5 mph - N/A   Mostly Cloudy
10:56 AM 15.1 °F 6.4 °F 10.9 °F 84% 29.92 in 10.0 mi NNW 5.8 mph - 0.00 in Snow Light Snow
11:56 AM 19.0 °F 12.3 °F 12.9 °F 77% 29.90 in 10.0 mi NNW 4.6 mph - 0.00 in   Overcast
12:56 PM 19.9 °F 12.1 °F 14.0 °F 78% 29.89 in 10.0 mi North 5.8 mph - N/A   Overcast
1:56 PM 21.0 °F 12.4 °F 15.1 °F 78% 29.88 in 10.0 mi North 6.9 mph - N/A   Overcast
2:56 PM 19.0 °F 11.1 °F 12.9 °F 77% 29.90 in 10.0 mi NNW 5.8 mph - N/A   Overcast
3:56 PM 18.0 °F 9.8 °F 12.0 °F 78% 29.91 in 10.0 mi NW 5.8 mph - N/A   Overcast
4:56 PM 16.0 °F 7.4 °F 10.9 °F 81% 29.94 in 10.0 mi NW 5.8 mph - N/A   Overcast
5:56 PM 14.0 °F 6.5 °F 10.0 °F 84% 29.93 in 10.0 mi NNW 4.6 mph - N/A   Overcast
6:56 PM 10.0 °F -2.9 °F 7.0 °F 87% 29.92 in 10.0 mi WNW 9.2 mph - N/A   Clear
7:56 PM 12.0 °F 5.9 °F 8.1 °F 84% 29.92 in 10.0 mi WSW 3.5 mph - N/A   Clear
8:56 PM 10.9 °F -0.8 °F 8.1 °F 88% 29.91 in 10.0 mi West 8.1 mph - N/A   Clear
9:56 PM 10.0 °F -1.9 °F 8.1 °F 92% 29.88 in 10.0 mi WSW 8.1 mph - N/A   Partly Cloudy
10:56 PM 10.9 °F -3.4 °F 8.1 °F 88% 29.84 in 10.0 mi West 11.5 mph - N/A   Clear
11:56 PM 10.9 °F -1.8 °F 8.1 °F 88% 29.81 in 10.0 mi WSW 9.2 mph - N/A   Clear